OPS 4682 DEB, 38429

Orbit data source: Space-Track

OPS 4682 DEB, 38429 is space debris in LEO originally from a launch on Sat, 03 Apr 1965 UTC launched from the Air Force Western Test Range (AFWTR). Debris objects in space refer to the collection of defunct objects orbiting the Earth. Examples of debris include non-operational satellites, rocket bodies, and fragments generated from explosions, collisions, or faulty payload assembly.

Loading next visibility...
Identifier
38429, 1965-027EJ
Orbit
LEO
Country
Flag of USUS
Related business
Manufacturer
Unknown
Mission
Spacecraft
Bus & Motor
Unknown
Mass
Unknown
Launch date (UTC)
1965-04-03 (61 years ago)
Launch vehicle
Unknown
Launch site
Air Force Western Test Range (AFWTR)
Object type
Payload
Rocket body
Debris
Shape & HBR
Unknown shape, 0.1 m
Radar Cross Section
Small (<0.1 m²)

Expand to show TLE details & history
Last TLE update: 20 hours ago

TLE from 20 hours ago
0 OPS 4682 DEB
1 38429U 65027EJ  25348.76414319  .00000041  00000-0  11425-3 0  9994
2 38429  90.2300 356.7632 0041592 157.1627 203.1356 12.97906025565494
Epoch: 2025-12-14T18:20Z
TLE epoch observation values (Epoch: 2025-12-14T18:20:21.971Z)
Latitude
0.00002°
Longitude
-2.00073°
Altitude
1,302.462 km
Speed
7.192 km/s
True Right ascension
23h 47m 03s
True Declination
0° 00' 00"
Sunlit
Object was in daylight at epoch
Visualization orbit readout
Latitude
Unknown
Longitude
Unknown
Altitude
Unknown
Speed
Unknown
Apparent Right ascension
Unknown
Apparent Declination
Unknown
Sunlit
N/A
Visualization observer readout
Local Sidereal Time
13:23:55
Azimuth
Unknown
Elevation
Unknown
Doppler factor
Unknown
Orbital elements
Apogee altitude
1,299.231 km
Perigee altitude
1,235.633 km
Semi-major axis
7,645.569 km
Eccentricity
0.00416
Inclination
90.23°
RAAN
356.7632°
Arg. of periapsis
157.1627°
True anomaly
202.94923°
Mean anomaly
203.1356°
Eccentric anomaly
203.04232°
Mean motion
3.2466 °/min
Orbital period
110.89 mins
BSTAR
0.00011425
Loading maneuver chart data...
Computing Atmospheric mass density...
Loading historical data...
Loading historical data...
Loading historical data...
Loading historical data...
Loading historical data...
Loading historical data...
Loading historical data...

Documentation

Showing up to 5 results
|